Weather in Matrayevo

Russia / Republic of Bashkortostan     52°15′02″N   58°01′28″E
temp.,
°C
wind,
m/s
gust,
m/s
humid.,
%
clouds,
%
prec.,
mm/h
press.,
hPa
HPBL,
m
21 june, mon
mon2123:00+19nnw613700 0.0 1017599
02:00+13nnw35620 0.0 101963
05:00+11nnw22730 0.0 102116
08:00+17nnw24530 0.0 1021375
11:00+21n57345 0.0 10211328
14:00+24nne57325 0.0 10211941
17:00+25n57330 0.0 10212095
20:00+22n224910 0.0 102134
22 june, tue
tue2223:00+15nnw22652 0.0 102216
02:00+14wnw226597 0.0 102211
05:00+14wnw22785 0.0 102219
08:00+20nw58680 0.0 1022416
11:00+26nw56496 0.0 10201664
14:00+28nw563977 0.0 10192707
17:00+27nw574438 0.0 10191036
20:00+24nnw510575 0.0 1019449
23 june, wed
wed2323:00+18nw368469 0.0 102098
02:00+17nw410875 0.0 1019171
05:00+17wnw310845 0.0 1019189
08:00+23nw5106352 0.3 1018502
11:00+27nnw77445 0.3 10171721
14:00+28nnw683993 0.0 10162505
17:00+19e5790100 8.5 1019303
20:00+18ese4486100 1.3 1018458
24 june, thu
thu2423:00+16se009550 2.3 101811
02:00+15se119625 0.3 101811
05:00+16ese129699 0.7 1017134
08:00+16e3493100 0.3 1018305
11:00+16se338658 0.3 1018343
14:00+22e116590 0.1 10181139
17:00+23ne235597 0.1 10171208
20:00+21ese226614 0.0 101787
25 june, fri
fri2523:00+17sw22780 0.0 101611
02:00+16w22850 0.0 101711
05:00+15wnw22885 0.0 101716
08:00+21wnw35685 0.0 1016343
11:00+25wnw23495 0.0 10151421
14:00+28wnw23385 0.0 10142207
17:00+29wnw443413 0.0 10122428
20:00+25wnw59563 0.0 1012285